Weather History for Rome, NY

Change the Weather History Date:

Saturday, April 20, 2013

  Actual Average Record
Temperature  
Mean Temperature 39 °F -  
Max Temperature 46 °F 60 °F 80 °F (1987)
Min Temperature 32 °F 41 °F 28 °F (2014)
Degree Days  
Heating Degree Days 26    
Moisture  
Dew Point 28 °F    
Average Humidity 62    
Maximum Humidity 76    
Minimum Humidity 47    
Precipitation  
Precipitation 0.00 in - - ()
Sea Level Pressure  
Sea Level Pressure 30.01 in    
Wind  
Wind Speed 13 mph (West)    
Max Wind Speed 25 mph    
Max Gust Speed 32 mph    
Visibility 10 miles    
Events Rain    
Averages and records for this station are not official NWS values.
T = Trace of Precipitation, MM = Missing Value Source: NWS Daily Summary

Daily Weather History Graph

Daily Weather History Graph

Search for Another Location

Airport:

Trip Planner

Search our weather history database for the weather conditions in past years. The results will help you decide how hot, cold, wet, or windy it might be!

Date:

Astronomy

Apr. 20, 2013 Rise Set
Actual Time 6:11 AM EDT 7:50 PM EDT
Civil Twilight 5:40 AM EDT 8:20 PM EDT
Nautical Twilight 5:04 AM EDT 8:57 PM EDT
Astronomical Twilight 4:25 AM EDT 9:36 PM EDT
Moon 2:23 PM EDT (4/20) 3:08 AM EDT (4/20)
Length of Visible Light 14h 39m
Length of Day
13h 39m
Waxing Gibbous, 71% of the Moon is Illuminated
Apr 20
Waxing Gibbous
Apr 25
Full
May 2
Last Quarter
May 9
New
May 18
First Quarter

Hourly Weather History & Observations

Time (EDT) Temp. Windchill Dew Point Humidity Pressure Visibility Wind Dir Wind Speed Gust Speed Precip Events Conditions
12:53 AM 43.0 °F 37.2 °F 36.0 °F 76% 29.79 in 10.0 mi WNW 10.4 mph - N/A   Overcast
1:53 AM 42.1 °F 35.7 °F 35.1 °F 76% 29.77 in 10.0 mi WNW 11.5 mph - N/A   Overcast
2:53 AM 42.1 °F 37.1 °F 33.1 °F 70% 29.76 in 10.0 mi West 8.1 mph - N/A   Overcast
3:53 AM 41.0 °F 34.3 °F 32.0 °F 70% 29.78 in 10.0 mi West 11.5 mph - N/A   Overcast
4:53 AM 41.0 °F 37.1 °F 32.0 °F 70% 29.78 in 10.0 mi West 5.8 mph - N/A   Overcast
5:53 AM 42.1 °F 37.1 °F 30.0 °F 62% 29.79 in 10.0 mi West 8.1 mph - N/A   Overcast
6:53 AM 41.0 °F 35.8 °F 30.9 °F 67% 29.82 in 10.0 mi WSW 8.1 mph - N/A   Mostly Cloudy
7:53 AM 42.1 °F 37.7 °F 32.0 °F 67% 29.85 in 10.0 mi West 6.9 mph - 0.00 in   Overcast
8:53 AM 42.1 °F 33.6 °F 28.0 °F 58% 29.86 in 10.0 mi West 18.4 mph 25.3 mph 0.00 in Rain Light Rain
9:53 AM 44.1 °F 36.2 °F 28.0 °F 53% 29.88 in 10.0 mi WNW 18.4 mph 28.8 mph 0.00 in   Mostly Cloudy
10:53 AM 45.0 °F 38.2 °F 30.0 °F 56% 29.90 in 10.0 mi West 15.0 mph 24.2 mph 0.00 in   Overcast
11:53 AM 42.1 °F 33.3 °F 28.0 °F 58% 29.96 in 10.0 mi WSW 19.6 mph 29.9 mph 0.00 in   Overcast
12:53 PM 43.0 °F 33.3 °F 24.1 °F 47% 29.97 in 10.0 mi West 25.3 mph 32.2 mph N/A   Mostly Cloudy
1:53 PM 42.1 °F 33.3 °F 26.1 °F 53% 30.00 in 10.0 mi West 19.6 mph 26.5 mph 0.00 in   Overcast
2:53 PM 41.0 °F 32.2 °F 30.9 °F 67% 30.04 in 10.0 mi WNW 18.4 mph 31.1 mph N/A   Overcast
3:53 PM 43.0 °F 34.0 °F 28.9 °F 58% 30.07 in 10.0 mi West 21.9 mph 31.1 mph N/A   Mostly Cloudy
4:53 PM 39.9 °F 31.4 °F 28.0 °F 63% 30.11 in 10.0 mi WNW 16.1 mph 28.8 mph N/A   Overcast
5:53 PM 37.9 °F 27.9 °F 26.1 °F 62% 30.16 in 10.0 mi WNW 19.6 mph 27.6 mph N/A   Overcast
6:53 PM 36.0 °F 25.6 °F 23.0 °F 59% 30.21 in 10.0 mi WNW 18.4 mph 29.9 mph N/A   Overcast
7:53 PM 35.1 °F 25.2 °F 19.9 °F 54% 30.26 in 10.0 mi West 16.1 mph 28.8 mph N/A   Overcast
8:53 PM 35.1 °F 24.1 °F 18.0 °F 50% 30.30 in 10.0 mi West 19.6 mph 26.5 mph N/A   Overcast
9:53 PM 34.0 °F 23.4 °F 23.0 °F 64% 30.35 in 10.0 mi WNW 17.3 mph - N/A   Overcast
10:53 PM 33.1 °F 23.0 °F 23.0 °F 66% 30.36 in 10.0 mi West 15.0 mph - 0.00 in   Clear
11:53 PM 32.0 °F 22.5 °F 21.9 °F 66% 30.39 in 10.0 mi WNW 12.7 mph - N/A   Scattered Clouds